Christchurch, New Zealand

11:29 PM NZST on June 27, 2017 (GMT +1200)
Christchurch

Weather History for 93780 - March, 2013

Change the Weather History Date:

Thursday, March 14, 2013

  Actual Average Record
Temperature  
Mean Temperature 60 °F -  
Max Temperature 73 °F 63 °F - ()
Min Temperature 48 °F 45 °F - ()
Degree Days  
Heating Degree Days 4    
Growing Degree Days 10 (Base 50)    
Moisture  
Dew Point 54 °F    
Average Humidity 82    
Maximum Humidity 100    
Minimum Humidity 57    
Precipitation  
Precipitation 0.00 in - - ()
Sea Level Pressure  
Sea Level Pressure 29.88 in    
Wind  
Wind Speed 7 mph ()    
Max Wind Speed 15 mph    
Max Gust Speed -    
Visibility 6.2 miles    
Events      
T = Trace of Precipitation, MM = Missing Value Source: Averaged Metar Reports

Daily Weather History Graph

Daily Weather History Graph

Search for Another Location

Airport or City:

Trip Planner

Search our weather history database for the weather conditions in past years. The results will help you decide how hot, cold, wet, or windy it might be!

Date:

Astronomy

Mar. 14, 2013 Rise Set
Actual Time 7:24 AM NZDT 7:52 PM NZDT
Civil Twilight 6:55 AM NZDT 8:21 PM NZDT
Nautical Twilight 6:21 AM NZDT 8:55 PM NZDT
Astronomical Twilight 5:46 AM NZDT 9:30 PM NZDT
Moon 9:43 AM NZDT (3/14) 8:42 PM NZDT (3/14)
Length of Visible Light 13h 25m
Length of Day
12h 28m
Waxing Crescent, 5% of the Moon is Illuminated
Mar 14
Waxing Crescent
Mar 20
First Quarter
Mar 27
Full
Apr 3
Last Quarter
Apr 10
New

Hourly Weather History & Observations

Time (NZDT) Temp. Dew Point Humidity Pressure Visibility Wind Dir Wind Speed Gust Speed Precip Events Conditions
12:00 AM 57.2 °F 53.6 °F 88% 30.01 in 6.2 mi East 8.1 mph - N/A   Partly Cloudy
1:00 AM 55.4 °F 51.8 °F 88% 30.01 in 6.2 mi East 5.8 mph - N/A   Partly Cloudy
2:00 AM 53.6 °F 50.0 °F 88% 29.98 in 6.2 mi ENE 6.9 mph - N/A   Partly Cloudy
3:00 AM 53.6 °F 51.8 °F 94% 29.95 in 6.2 mi North 3.5 mph - N/A   Partly Cloudy
4:00 AM 48.2 °F 46.4 °F 93% 29.95 in 6.2 mi NE 2.3 mph - N/A   Partly Cloudy
5:00 AM 48.2 °F 46.4 °F 93% 29.92 in 6.2 mi NNE 2.3 mph - N/A   Partly Cloudy
6:00 AM 48.2 °F 48.2 °F 100% 29.89 in 6.2 mi NNE 3.5 mph - N/A   Partly Cloudy
7:00 AM 48.2 °F 48.2 °F 100% 29.89 in - North 3.5 mph - N/A   Clear
8:00 AM 48.2 °F 48.2 °F 100% 29.89 in - NNE 4.6 mph - N/A   Clear
9:00 AM 55.4 °F 55.4 °F 100% 29.89 in - NNE 5.8 mph - N/A   Clear
10:00 AM 62.6 °F 57.2 °F 82% 29.89 in - ENE 15.0 mph - N/A   Clear
11:00 AM 66.2 °F 55.4 °F 68% 29.89 in - East 15.0 mph - N/A   Clear
12:00 PM 68.0 °F 55.4 °F 64% 29.89 in - ENE 12.7 mph - N/A   Clear
1:00 PM 71.6 °F 57.2 °F 60% 29.83 in - East 15.0 mph - N/A   Clear
2:00 PM 71.6 °F 55.4 °F 57% 29.86 in - ENE 12.7 mph - N/A   Clear
3:00 PM 73.4 °F 57.2 °F 57% 29.83 in - East 12.7 mph - N/A   Clear
4:00 PM 73.4 °F 57.2 °F 57% 29.83 in - East 12.7 mph - N/A   Clear
5:00 PM 71.6 °F 57.2 °F 60% 29.80 in - East 13.8 mph - N/A   Clear
6:00 PM 68.0 °F 59.0 °F 73% 29.80 in - East 13.8 mph - N/A   Clear
7:00 PM 66.2 °F 59.0 °F 78% 29.80 in - ENE 11.5 mph - N/A   Clear
8:00 PM 62.6 °F 59.0 °F 88% 29.80 in - ENE 9.2 mph - N/A   Clear
9:00 PM 59.0 °F 57.2 °F 94% 29.83 in - NE 5.8 mph - N/A   Clear
10:00 PM 59.0 °F 57.2 °F 94% 29.83 in 6.2 mi NNE 4.6 mph - N/A   Scattered Clouds
11:00 PM 59.0 °F 57.2 °F 94% 29.83 in 6.2 mi NNW 3.5 mph - N/A   Partly Cloudy